Location: Washington
(38.8950°N, 77.0370°W)
Time: 10:03:18
(UTC-04:00)

IDEFIX/ARIANE 42P - Visible Passes

Search period start: 29 August 2014 00:00
Search period end: 08 September 2014 00:00
Orbit: 785 x 804 km, 98.3° (Epoch: 25 August)

Date Brightness Start Highest point End Pass type
(mag) Time Alt. Az. Time Alt. Az. Time Alt. Az.
29 Aug 2.5 20:38:36 10° SSE 20:43:44 75° ENE 20:48:55 10° N visible
29 Aug 5.3 22:22:06 10° WSW 22:23:52 12° W 22:25:39 10° WNW visible
30 Aug 3.1 20:10:56 10° SE 20:15:44 40° ENE 20:20:33 10° N visible
30 Aug 4.7 21:51:28 10° SW 21:55:28 23° W 21:59:29 10° NW visible
31 Aug 3.7 21:22:19 10° SSW 21:27:10 41° W 21:32:04 10° NNW visible
01 Sep 2.7 20:53:50 10° S 20:58:59 78° WSW 21:04:12 10° NNW visible
02 Sep 2.7 20:25:53 10° SSE 20:30:55 57° ENE 20:36:00 10° N visible
02 Sep 5.1 22:07:48 10° SW 22:10:53 16° W 22:13:59 10° NW visible
03 Sep 3.4 19:58:28 10° SE 20:02:58 31° ENE 20:07:30 10° N visible
03 Sep 4.3 21:38:03 10° SSW 21:42:31 29° W 21:47:01 10° NW visible
04 Sep 3.2 21:09:14 10° S 21:14:16 55° W 21:19:22 10° NNW visible
05 Sep 2.5 20:40:59 10° SSE 20:46:09 80° ENE 20:51:21 10° N visible
05 Sep 5.4 22:25:13 10° WSW 22:26:20 11° W 22:27:28 10° WNW visible
06 Sep 3.0 20:13:16 10° SE 20:18:08 43° ENE 20:23:02 10° N visible
06 Sep 4.8 21:54:04 10° SW 21:57:54 21° W 22:01:47 10° NW visible
07 Sep 3.8 21:24:48 10° SSW 21:29:36 39° W 21:34:26 10° NNW visible
